| time (UTC) | temp F | wind direction | speed MPH | gust MPH | rain 1hr in | rain 24hr in | rain mn in | humidity % | barometer mb |
| 20260507112001 | 58 | 171 | 13.0 | 13.0 | 0.00 | 0.00 | 0.00 | 80 | 1021.0 |
| 20260507111001 | 58 | 175 | 6.0 | 13.0 | 0.00 | 0.00 | 0.00 | 79 | 1020.0 |
| 20260507110002 | 57 | 170 | 12.0 | 17.0 | 0.00 | 0.00 | 0.00 | 78 | 1020.0 |
| 20260507105001 | 58 | 168 | 10.0 | 17.0 | 0.00 | 0.00 | 0.00 | 77 | 1021.0 |
| 20260507104002 | 58 | 171 | 9.0 | 12.0 | 0.00 | 0.00 | 0.00 | 78 | 1021.0 |
| 20260507103002 | 57 | 174 | 13.0 | 15.0 | 0.00 | 0.00 | 0.00 | 79 | 1021.0 |
| 20260507102002 | 57 | 171 | 13.0 | 17.0 | 0.00 | 0.00 | 0.00 | 78 | 1021.0 |
| 20260507101001 | 57 | 167 | 17.0 | 19.0 | 0.00 | 0.00 | 0.00 | 78 | 1020.0 |
| 20260507100002 | 57 | 172 | 15.0 | 18.0 | 0.00 | 0.00 | 0.00 | 77 | 1020.0 |
| 20260507095001 | 57 | 172 | 15.0 | 17.0 | 0.00 | 0.00 | 0.00 | 78 | 1020.0 |
| 20260507094002 | 57 | 166 | 13.0 | 15.0 | 0.00 | 0.00 | 0.00 | 79 | 1021.0 |
| 20260507093002 | 57 | 167 | 9.0 | 12.0 | 0.00 | 0.00 | 0.00 | 78 | 1021.0 |
| 20260507092002 | 57 | 146 | 14.0 | 16.0 | 0.00 | 0.00 | 0.00 | 79 | 1021.0 |
| 20260507091001 | 56 | 159 | 12.0 | 17.0 | 0.00 | 0.00 | 0.00 | 78 | 1021.0 |
| 20260507090006 | 56 | 172 | 12.0 | 14.0 | 0.00 | 0.00 | 0.00 | 79 | 1021.0 |
| 20260507085001 | 56 | 168 | 12.0 | 14.0 | 0.00 | 0.00 | 0.00 | 79 | 1021.0 |
| 20260507084001 | 56 | 166 | 12.0 | 16.0 | 0.00 | 0.00 | 0.00 | 79 | 1021.0 |
| 20260507083002 | 56 | 160 | 16.0 | 19.0 | 0.00 | 0.00 | 0.00 | 80 | 1020.0 |
| 20260507082001 | 56 | 164 | 12.0 | 16.0 | 0.00 | 0.00 | 0.00 | 80 | 1020.0 |
| 20260507081002 | 56 | 164 | 12.0 | 18.0 | 0.00 | 0.00 | 0.00 | 79 | 1020.0 |
| 20260507080003 | 57 | 166 | 12.0 | 16.0 | 0.00 | 0.00 | 0.00 | 78 | 1020.0 |
| 20260507075001 | 57 | 173 | 18.0 | 22.0 | 0.00 | 0.00 | 0.00 | 78 | 1021.0 |
| 20260507074002 | 57 | 177 | 11.0 | 16.0 | 0.00 | 0.00 | 0.00 | 78 | 1020.0 |
| 20260507073002 | 57 | 173 | 9.0 | 18.0 | 0.00 | 0.00 | 0.00 | 78 | 1020.0 |
| 20260507072001 | 57 | 171 | 9.0 | 12.0 | 0.00 | 0.00 | 0.00 | 79 | 1021.0 |
| 20260507071001 | 57 | 181 | 8.0 | 13.0 | 0.00 | 0.00 | 0.00 | 77 | 1020.0 |
| 20260507070004 | 57 | 172 | 15.0 | 17.0 | 0.00 | 0.00 | 0.00 | 77 | 1021.0 |
| 20260507065001 | 57 | 172 | 9.0 | 13.0 | 0.00 | 0.00 | 0.00 | 78 | 1020.0 |
| 20260507064002 | 56 | 178 | 15.0 | 16.0 | 0.00 | 0.00 | 0.00 | 77 | 1020.0 |
| 20260507063001 | 57 | 186 | 10.0 | 11.0 | 0.00 | 0.00 | 0.00 | 75 | 1020.0 |
| 20260507062002 | 57 | 172 | 8.0 | 13.0 | 0.00 | 0.00 | 0.00 | 77 | 1020.0 |
| 20260507061001 | 57 | 174 | 7.0 | 10.0 | 0.00 | 0.00 | 0.00 | 79 | 1020.0 |
| 20260507060002 | 56 | 179 | 7.0 | 11.0 | 0.00 | 0.00 | 0.00 | 79 | 1020.0 |
| 20260507055002 | 56 | 194 | 11.0 | 12.0 | 0.00 | 0.00 | 0.00 | 81 | 1020.0 |
| 20260507054001 | 55 | 185 | 9.0 | 13.0 | 0.00 | 0.00 | 0.00 | 82 | 1020.0 |
| 20260507053002 | 55 | 203 | 9.0 | 11.0 | 0.00 | 0.00 | 0.00 | 83 | 1020.0 |
| 20260507052001 | 55 | 195 | 10.0 | 11.0 | 0.00 | 0.00 | 0.00 | 84 | 1020.0 |
| 20260507051002 | 54 | 204 | 6.0 | 7.0 | 0.00 | 0.00 | 0.00 | 85 | 1020.0 |
| 20260507050001 | 54 | 192 | 7.0 | 7.0 | 0.00 | 0.00 | 0.00 | 85 | 1020.0 |
| 20260507045002 | 53 | 197 | 4.0 | 6.0 | 0.00 | 0.00 | 0.00 | 88 | 1020.0 |
| 20260507044001 | 52 | 186 | 4.0 | 5.0 | 0.00 | 0.00 | 0.00 | 91 | 1020.0 |
| 20260507043002 | 51 | 110 | 2.0 | 2.0 | 0.00 | 0.00 | 0.00 | 94 | 1020.0 |
| 20260507042001 | 49 | 231 | 2.0 | 3.0 | 0.00 | 0.00 | 0.00 | 96 | 1020.0 |
| 20260507041001 | 48 | 194 | 1.0 | 2.0 | 0.00 | 0.00 | 0.00 | 96 | 1020.0 |
| 20260507040001 | 48 | 176 | 2.0 | 2.0 | 0.00 | 0.00 | 0.00 | 96 | 1019.0 |
| 20260507035001 | 47 | 120 | 3.0 | 3.0 | 0.00 | 0.00 | 0.00 | 96 | 1020.0 |
| 20260507034002 | 46 | 354 | 1.0 | 2.0 | 0.00 | 0.00 | 0.00 | 96 | 1019.0 |
| 20260507033001 | 46 | 29 | 2.0 | 2.0 | 0.00 | 0.00 | 0.00 | 96 | 1019.0 |
| 20260507032002 | 46 | 5 | 2.0 | 2.0 | 0.00 | 0.00 | 0.00 | 96 | 1019.0 |
| 20260507031001 | 45 | 24 | 3.0 | 3.0 | 0.00 | 0.00 | 0.00 | 96 | 1019.0 |
| 20260507030002 | 45 | 43 | 1.0 | 2.0 | 0.00 | 0.00 | 0.00 | 96 | 1019.0 |
| 20260507025001 | 45 | 46 | 3.0 | 3.0 | 0.00 | 0.00 | 0.00 | 95 | 1019.0 |
| 20260507024001 | 46 | 64 | 1.0 | 4.0 | 0.00 | 0.00 | 0.00 | 96 | 1019.0 |
| 20260507023002 | 46 | 48 | 0.0 | 2.0 | 0.00 | 0.00 | 0.00 | 96 | 1019.0 |
| 20260507022001 | 46 | 16 | 2.0 | 3.0 | 0.00 | 0.00 | 0.00 | 96 | 1019.0 |
| 20260507021002 | 46 | 99 | 2.0 | 3.0 | 0.00 | 0.00 | 0.00 | 95 | 1019.0 |
| 20260507020001 | 47 | 6 | 2.0 | 3.0 | 0.00 | 0.00 | 0.00 | 95 | 1019.0 |
| 20260507015001 | 47 | 45 | 0.0 | 1.0 | 0.00 | 0.00 | 0.00 | 95 | 1019.0 |
| 20260507014002 | 47 | 120 | 3.0 | 3.0 | 0.00 | 0.00 | 0.00 | 94 | 1019.0 |
| 20260507013001 | 47 | 154 | 2.0 | 3.0 | 0.00 | 0.00 | 0.00 | 95 | 1019.0 |
| 20260507012002 | 47 | 8 | 1.0 | 2.0 | 0.00 | 0.00 | 0.00 | 94 | 1019.0 |
| 20260507011001 | 48 | 144 | 0.0 | 1.0 | 0.00 | 0.00 | 0.00 | 94 | 1019.0 |
| 20260507010002 | 48 | 123 | 1.0 | 2.0 | 0.00 | 0.00 | 0.00 | 94 | 1019.0 |
| 20260507005001 | 48 | 246 | 0.0 | 1.0 | 0.00 | 0.00 | 0.00 | 94 | 1019.0 |
| 20260507004001 | 48 | 300 | 2.0 | 2.0 | 0.00 | 0.00 | 0.00 | 94 | 1019.0 |
| 20260507003001 | 48 | 134 | 0.0 | 0.0 | 0.00 | 0.00 | 0.00 | 95 | 1019.0 |
| 20260507002002 | 48 | 217 | 0.0 | 2.0 | 0.00 | 0.00 | 0.00 | 94 | 1019.0 |
| 20260507001001 | 48 | 167 | 0.0 | 2.0 | 0.00 | 0.00 | 0.00 | 95 | 1019.0 |
| 20260507000002 | 48 | 174 | 0.0 | 1.0 | 0.00 | 0.00 | 0.00 | 94 | 1019.0 |
| 20260506235001 | 48 | 169 | 4.0 | 4.0 | 0.00 | 0.00 | 0.00 | 94 | 1019.0 |
| 20260506234001 | 48 | 209 | 1.0 | 3.0 | 0.00 | 0.00 | 0.00 | 95 | 1019.0 |
| 20260506233001 | 48 | 226 | 2.0 | 3.0 | 0.00 | 0.00 | 0.00 | 95 | 1019.0 |
| 20260506232001 | 48 | 237 | 0.0 | 0.0 | 0.00 | 0.00 | 0.00 | 94 | 1019.0 |
| 20260506231002 | 48 | 201 | 1.0 | 2.0 | 0.00 | 0.00 | 0.00 | 95 | 1019.0 |
| 20260506230001 | 48 | 129 | 0.0 | 0.0 | 0.00 | 0.00 | 0.00 | 95 | 1019.0 |
| 20260506225002 | 48 | 113 | 0.0 | 1.0 | 0.00 | 0.00 | 0.00 | 94 | 1019.0 |
| 20260506224001 | 49 | 140 | 0.0 | 0.0 | 0.00 | 0.00 | 0.00 | 94 | 1019.0 |
| 20260506223001 | 49 | 309 | 0.0 | 0.0 | 0.00 | 0.00 | 0.00 | 94 | 1019.0 |
| 20260506222002 | 49 | 297 | 0.0 | 0.0 | 0.00 | 0.00 | 0.00 | 94 | 1019.0 |
| 20260506221001 | 49 | 159 | 0.0 | 1.0 | 0.00 | 0.00 | 0.00 | 94 | 1019.0 |
| 20260506220002 | 49 | 135 | 0.0 | 1.0 | 0.00 | 0.00 | 0.00 | 94 | 1019.0 |
| 20260506215001 | 49 | 147 | 1.0 | 1.0 | 0.00 | 0.00 | 0.00 | 94 | 1019.0 |
| 20260506214002 | 49 | 216 | 0.0 | 0.0 | 0.00 | 0.00 | 0.00 | 94 | 1019.0 |
| 20260506213001 | 50 | 257 | 0.0 | 0.0 | 0.00 | 0.00 | 0.00 | 94 | 1019.0 |
| 20260506212002 | 50 | 184 | 1.0 | 2.0 | 0.00 | 0.00 | 0.00 | 95 | 1019.0 |
| 20260506211001 | 50 | 211 | 0.0 | 2.0 | 0.00 | 0.00 | 0.00 | 95 | 1019.0 |
| 20260506210001 | 49 | 161 | 0.0 | 0.0 | 0.00 | 0.00 | 0.00 | 94 | 1019.0 |
| 20260506205002 | 49 | 141 | 0.0 | 1.0 | 0.00 | 0.00 | 0.00 | 94 | 1019.0 |
| 20260506204001 | 49 | 119 | 0.0 | 0.0 | 0.00 | 0.00 | 0.00 | 93 | 1019.0 |
| 20260506203002 | 50 | 179 | 0.0 | 1.0 | 0.00 | 0.00 | 0.00 | 93 | 1019.0 |
| 20260506202002 | 51 | 173 | 2.0 | 3.0 | 0.00 | 0.00 | 0.00 | 94 | 1019.0 |
| 20260506201002 | 51 | 157 | 3.0 | 3.0 | 0.00 | 0.00 | 0.00 | 94 | 1019.0 |
| 20260506200001 | 51 | 156 | 2.0 | 2.0 | 0.00 | 0.00 | 0.00 | 94 | 1019.0 |
| 20260506195001 | 51 | 160 | 1.0 | 2.0 | 0.00 | 0.00 | 0.00 | 93 | 1019.0 |
| 20260506194002 | 51 | 210 | 0.0 | 1.0 | 0.00 | 0.00 | 0.00 | 93 | 1019.0 |
| 20260506193001 | 51 | 177 | 2.0 | 2.0 | 0.00 | 0.00 | 0.00 | 93 | 1019.0 |
| 20260506192002 | 52 | 182 | 2.0 | 2.0 | 0.00 | 0.00 | 0.00 | 92 | 1019.0 |
| 20260506191001 | 52 | 180 | 2.0 | 4.0 | 0.00 | 0.00 | 0.00 | 92 | 1019.0 |
| 20260506190001 | 52 | 174 | 3.0 | 3.0 | 0.00 | 0.00 | 0.00 | 92 | 1019.0 |
| 20260506185001 | 52 | 157 | 2.0 | 3.0 | 0.00 | 0.00 | 0.00 | 91 | 1019.0 |
| 20260506184001 | 52 | 167 | 4.0 | 5.0 | 0.00 | 0.00 | 0.00 | 91 | 1019.0 |
| 20260506183002 | 52 | 170 | 4.0 | 5.0 | 0.00 | 0.00 | 0.00 | 90 | 1019.0 |
| 20260506182001 | 53 | 189 | 4.0 | 4.0 | 0.00 | 0.00 | 0.00 | 90 | 1018.0 |
| 20260506181002 | 53 | 182 | 2.0 | 3.0 | 0.00 | 0.00 | 0.00 | 89 | 1018.0 |
| 20260506180001 | 53 | 179 | 2.0 | 3.0 | 0.00 | 0.00 | 0.00 | 89 | 1018.0 |
| 20260506175002 | 53 | 180 | 3.0 | 6.0 | 0.00 | 0.00 | 0.00 | 89 | 1018.0 |
| 20260506174001 | 53 | 173 | 1.0 | 3.0 | 0.00 | 0.00 | 0.00 | 89 | 1018.0 |
| 20260506173001 | 53 | 170 | 5.0 | 7.0 | 0.00 | 0.00 | 0.00 | 89 | 1018.0 |
| 20260506172002 | 53 | 168 | 5.0 | 6.0 | 0.00 | 0.00 | 0.00 | 89 | 1018.0 |
| 20260506171001 | 54 | 162 | 5.0 | 6.0 | 0.00 | 0.00 | 0.00 | 88 | 1018.0 |
| 20260506170002 | 54 | 164 | 7.0 | 9.0 | 0.00 | 0.00 | 0.00 | 87 | 1018.0 |
| 20260506165001 | 55 | 164 | 10.0 | 11.0 | 0.00 | 0.00 | 0.00 | 86 | 1018.0 |
| 20260506164002 | 55 | 171 | 8.0 | 8.0 | 0.00 | 0.00 | 0.00 | 85 | 1018.0 |
| 20260506163001 | 55 | 174 | 7.0 | 9.0 | 0.00 | 0.00 | 0.00 | 84 | 1018.0 |
| 20260506162002 | 56 | 172 | 9.0 | 11.0 | 0.00 | 0.00 | 0.00 | 82 | 1018.0 |
| 20260506161001 | 56 | 170 | 6.0 | 9.0 | 0.00 | 0.00 | 0.00 | 81 | 1018.0 |
| 20260506160002 | 56 | 176 | 7.0 | 9.0 | 0.00 | 0.00 | 0.00 | 82 | 1018.0 |
| 20260506155001 | 56 | 178 | 11.0 | 14.0 | 0.00 | 0.00 | 0.00 | 81 | 1018.0 |
| 20260506154002 | 56 | 170 | 7.0 | 9.0 | 0.00 | 0.00 | 0.00 | 82 | 1018.0 |
| 20260506153001 | 56 | 171 | 11.0 | 12.0 | 0.00 | 0.00 | 0.00 | 81 | 1018.0 |
| 20260506152002 | 57 | 169 | 7.0 | 12.0 | 0.00 | 0.00 | 0.00 | 80 | 1018.0 |
| 20260506151001 | 57 | 172 | 12.0 | 12.0 | 0.00 | 0.00 | 0.00 | 79 | 1018.0 |
| 20260506150002 | 57 | 170 | 12.0 | 13.0 | 0.00 | 0.00 | 0.00 | 78 | 1018.0 |
| 20260506145001 | 57 | 167 | 8.0 | 10.0 | 0.00 | 0.00 | 0.00 | 77 | 1018.0 |
| 20260506144001 | 57 | 175 | 8.0 | 13.0 | 0.00 | 0.00 | 0.00 | 76 | 1018.0 |
| 20260506143002 | 57 | 185 | 12.0 | 15.0 | 0.00 | 0.00 | 0.00 | 76 | 1018.0 |
| 20260506142001 | 57 | 175 | 8.0 | 11.0 | 0.00 | 0.00 | 0.00 | 76 | 1018.0 |
| 20260506141002 | 57 | 172 | 12.0 | 12.0 | 0.00 | 0.00 | 0.00 | 73 | 1018.0 |
| 20260506140001 | 58 | 170 | 9.0 | 10.0 | 0.00 | 0.00 | 0.00 | 75 | 1018.0 |
| 20260506135002 | 58 | 175 | 9.0 | 12.0 | 0.00 | 0.00 | 0.00 | 74 | 1018.0 |
| 20260506134001 | 58 | 185 | 11.0 | 13.0 | 0.00 | 0.00 | 0.00 | 73 | 1018.0 |
| 20260506133002 | 58 | 175 | 14.0 | 15.0 | 0.00 | 0.00 | 0.00 | 71 | 1018.0 |
| 20260506132001 | 58 | 172 | 13.0 | 17.0 | 0.00 | 0.00 | 0.00 | 69 | 1019.0 |
| 20260506131002 | 58 | 165 | 11.0 | 12.0 | 0.00 | 0.00 | 0.00 | 72 | 1019.0 |
| 20260506130001 | 58 | 168 | 12.0 | 13.0 | 0.00 | 0.00 | 0.00 | 71 | 1019.0 |
| 20260506125002 | 59 | 170 | 10.0 | 12.0 | 0.00 | 0.00 | 0.00 | 72 | 1018.0 |
| 20260506124001 | 58 | 172 | 8.0 | 13.0 | 0.00 | 0.00 | 0.00 | 71 | 1018.0 |
| 20260506123002 | 59 | 172 | 6.0 | 8.0 | 0.00 | 0.00 | 0.00 | 70 | 1018.0 |
| 20260506122001 | 59 | 167 | 13.0 | 13.0 | 0.00 | 0.00 | 0.00 | 67 | 1019.0 |
| 20260506121002 | 59 | 174 | 14.0 | 14.0 | 0.00 | 0.00 | 0.00 | 66 | 1019.0 |
| 20260506120001 | 59 | 174 | 12.0 | 16.0 | 0.00 | 0.00 | 0.00 | 67 | 1019.0 |
| 20260506115002 | 59 | 178 | 15.0 | 16.0 | 0.00 | 0.00 | 0.00 | 68 | 1019.0 |
| 20260506114001 | 59 | 186 | 9.0 | 13.0 | 0.00 | 0.00 | 0.00 | 70 | 1019.0 |
| 20260506113002 | 59 | 172 | 10.0 | 12.0 | 0.00 | 0.00 | 0.00 | 70 | 1019.0 |